Home   Weather   Tórshavn   Past weeks

Flag for Faroe Islands Past Weather in Tórshavn, Faroe Islands — Yesterday and Last 2 Weeks

41 °F

Sprinkles. Broken clouds.

Feels Like: 30 °F
Forecast: 45 / 51 °F
Wind: 30 mph from West

Location: Soervaag / Vagar

Current Time: Oct 28, 2016 at 11:26:13 AM

Latest Report: Oct 28, 2016 at 10:50 AM

Visibility: N/A

Pressure: 29.92 "Hg

Humidity: 76%

Dew Point: 34 °F

Location of TórshavnLocation

Past Weather in Tórshavn — Graph


Tórshavn Temperature Yesterday

Maximum temperature yesterday: 50 °F (at 1:50 AM)
Minimum temperature yesterday: 41 °F (at 1:52 PM)
Average temperature yesterday: 46 °F

High & Low Weather Summary for the Past Weeks

High52 °F (Oct 16, 11:50 AM)100% (Oct 16, 7:50 AM)30.27 "Hg (Oct 16, 7:50 AM)
Low39 °F (Oct 23, 11:50 PM)50% (Oct 15, 10:20 PM)29.42 "Hg (Oct 26, 6:50 AM)
Average48 °F87%29.95 "Hg
* Reported Oct 13 10:27 AM — Oct 28 10:24 AM, Tórshavn, Weather by CustomWeather, © 2016

Note: Actual official high and low records may vary slightly from our data, if they occured in-between our weather recording intervals... More about our weather records


Tórshavn Weather History for the Previous 24 Hours

Scroll right to see more
Time TempWeatherWind HumidityBarometerVisibility
10:24 AM
Fri, Oct 28
43 °FSprinkles. Broken clouds.30 mph71%29.89 "HgN/A
9:50 AM41 °FSprinkles. Broken clouds.36 mph81%29.89 "HgN/A
9:20 AM45 °FSprinkles. Broken clouds.32 mph66%29.86 "HgN/A
8:50 AM43 °FPartly cloudy.26 mph76%29.86 "HgN/A
8:20 AM45 °FPartly cloudy.31 mph66%29.83 "HgN/A
7:50 AM43 °FRain showers. Partly cloudy.29 mph71%29.83 "HgN/A
7:20 AM45 °FSprinkles. Partly cloudy.33 mph71%29.80 "HgN/A
6:50 AM39 °FSprinkles. Partly cloudy.28 mph87%29.80 "HgN/A
6:20 AM43 °FPassing clouds.33 mph76%29.77 "HgN/A
5:50 AM43 °FPassing clouds.32 mph76%29.77 "HgN/A
5:20 AM43 °FPassing clouds.28 mph76%29.74 "HgN/A
4:50 AM41 °FLight rain. Passing clouds.36 mph81%29.74 "Hg5 mi
4:20 AM43 °FPassing clouds.37 mph76%29.71 "HgN/A
3:50 AM43 °FPassing clouds.39 mph71%29.71 "HgN/A
3:20 AM43 °FPassing clouds.37 mph76%29.71 "HgN/A
2:50 AM43 °FPartly cloudy.36 mph76%29.71 "HgN/A
2:20 AM43 °FSprinkles. Passing clouds.36 mph76%29.68 "HgN/A
1:50 AM45 °FSprinkles. Passing clouds.35 mph71%29.68 "HgN/A
1:20 AM45 °FPassing clouds.33 mph71%29.68 "HgN/A
12:50 AM45 °FPassing clouds.25 mph71%29.65 "HgN/A
12:20 AM45 °FPartly cloudy.26 mph66%29.65 "HgN/A
11:50 PM
Thu, Oct 27
41 °FSprinkles. Passing clouds.29 mph81%29.65 "HgN/A
11:20 PM43 °FSprinkles. Passing clouds.32 mph76%29.65 "HgN/A
10:50 PM43 °FSprinkles. Passing clouds.25 mph76%29.62 "HgN/A
10:20 PM41 °FLight rain. Passing clouds.35 mph70%29.62 "HgN/A
9:50 PM45 °FPassing clouds.30 mph66%29.59 "HgN/A
9:20 PM43 °FSprinkles. Passing clouds.28 mph71%29.62 "HgN/A
8:50 PM45 °FPartly cloudy.24 mph66%29.59 "HgN/A
8:20 PM45 °FSprinkles. Passing clouds.23 mph71%29.59 "HgN/A
7:59 PM43 °FPassing clouds.24 mph71%29.59 "HgN/A
7:22 PM43 °FPassing clouds.23 mph76%29.59 "HgN/A
6:51 PM43 °FPassing clouds.24 mph76%29.59 "HgN/A
6:21 PM43 °FSprinkles. Partly cloudy.23 mph81%29.59 "HgN/A
5:56 PM43 °FScattered showers. Passing clouds.24 mph76%29.56 "HgN/A
5:21 PM43 °FSprinkles. Scattered clouds.30 mph76%29.56 "HgN/A
4:50 PM45 °FBroken clouds.23 mph71%29.56 "HgN/A
4:20 PM43 °FSprinkles. Broken clouds.25 mph76%29.59 "HgN/A
3:53 PM43 °FSprinkles. Partly sunny.25 mph76%29.56 "HgN/A
3:20 PM46 °FSprinkles. Partly sunny.20 mph71%29.56 "HgN/A
2:51 PM45 °FSprinkles. Partly sunny.22 mph71%29.56 "HgN/A
2:20 PM45 °FSprinkles. Partly sunny.15 mph76%29.56 "HgN/A
1:52 PM41 °FSprinkles. Partly sunny.29 mph87%29.56 "HgN/A
1:20 PM46 °FSprinkles. Partly sunny.23 mph62%29.56 "HgN/A
12:50 PM43 °FSprinkles. Partly sunny.22 mph71%29.56 "HgN/A
12:20 PM46 °FPartly sunny.25 mph76%29.56 "HgN/A
11:50 AM46 °FSprinkles. Partly sunny.22 mph66%29.56 "HgN/A
11:20 AM46 °FSprinkles. Partly sunny.24 mph57%29.56 "HgN/A
Weather by CustomWeather, © 2016

See weather overviewHow to use our weather pages